INTELSAT 602 1 20315C 89087A 08194.00000000 -.00000048 00000-0 00000-0 0 19405 2 20315 6.0713 70.4292 0003120 53.3972 323.4091 1.00274665 13 INTELSAT 602 1 20315C 89087A 08201.00000000 -.00000048 00000-0 00000-0 0 20103 2 20315 6.0849 70.3859 0003180 58.0937 325.6559 1.00273181 15 INTELSAT 602 [PM] 1 20315C 89087A 08202.35069444 -.00000048 00000-0 00000-0 0 20222 2 20315 6.0861 70.3766 0001621 350.5599 160.7977 1.00271507 10 INTELSAT 603 [PM] 1 20523C 90021A 08190.38964120 -.00000064 00000-0 00000-0 0 19032 2 20523 5.5330 72.0708 0001919 59.0037 275.9182 1.00272290 16 INTELSAT 603 1 20523C 90021A 08194.00000000 -.00000064 00000-0 00000-0 0 19404 2 20523 5.5440 72.0059 0001238 320.9200 237.3537 1.00275166 14 INTELSAT 603 1 20523C 90021A 08201.00000000 -.00000064 00000-0 00000-0 0 20102 2 20523 5.5579 71.9668 0000743 333.2754 231.9534 1.00273271 14 SBS-6 1 20872C 90091A 08192.00000000 -.00000187 00000-0 00000-0 0 19200 2 20872 0.0090 148.8086 0000028 254.0194 171.5009 1.00272053 14 SBS-6 1 20872C 90091A 08199.00000000 -.00000159 00000-0 00000-0 0 19903 2 20872 0.0246 198.1945 0000020 220.0679 162.9701 1.00271644 10 INTELSAT 605 1 21653C 91055A 08194.00000000 .00000099 00000-0 00000-0 0 19404 2 21653 3.5779 76.8736 0001714 32.2425 355.1246 1.00271975 17 INTELSAT 605 [PM] 1 21653C 91055A 08195.17361111 .00000099 00000-0 00000-0 0 19518 2 21653 3.5813 76.8721 0001939 9.9493 81.0837 1.00270629 11 INTELSAT 605 1 21653C 91055A 08201.00000000 .00000099 00000-0 00000-0 0 20102 2 21653 3.5928 76.8685 0001743 42.3106 351.9648 1.00272325 16 INTELSAT 601 1 21765C 91075A 08194.00000000 .00000217 00000-0 00000-0 0 19402 2 21765 3.6296 76.6115 0000374 136.7593 124.3834 1.00274316 13 INTELSAT 601 [PM] 1 21765C 91075A 08200.12500000 .00000217 00000-0 00000-0 0 20017 2 21765 3.6432 76.6076 0000450 76.0775 236.1161 1.00269479 13 INTELSAT 601 1 21765C 91075A 08201.00000000 .00000217 00000-0 00000-0 0 20100 2 21765 3.6443 76.6036 0000385 132.1260 135.9314 1.00269777 18 INTELSAT 701 1 22871C 93066A 08194.00000000 .00000142 00000-0 00000-0 0 19400 2 22871 0.0046 349.2344 0003039 122.2128 358.8069 1.00272625 19 INTELSAT 701 1 22871C 93066A 08201.00000000 .00000143 00000-0 00000-0 0 20109 2 22871 0.0092 75.8347 0003047 44.2331 357.0925 1.00271554 15 INTELSAT 701 [PM] 1 22871C 93066A 08201.57243056 .00000064 00000-0 00000-0 0 20147 2 22871 0.0108 43.7195 0003269 65.5604 103.1632 1.00270262 13 INTELSAT 701 [PM] 1 22871C 93066A 08201.74870370 .00000144 00000-0 00000-0 0 20151 2 22871 0.0099 78.4360 0003054 42.5721 266.4250 1.00270863 14 INTELSAT 702 1 23124C 94034A 08194.00000000 .00000177 00000-0 00000-0 0 19406 2 23124 0.0252 60.5645 0002918 55.4792 229.0575 1.00273705 17 INTELSAT 702 1 23124C 94034A 08201.00000000 -.00002822 00000-0 00000-0 0 20104 2 23124 0.0038 120.8470 0003010 355.5422 235.6190 1.00269950 16 INTELSAT 702 [PM] 1 23124C 94034A 08206.24466435 -.00003585 00000-0 00000-0 0 20616 2 23124 0.0370 248.7937 0002508 244.4287 312.0145 1.00272995 12 INTELSAT 2 1 23175C 94040A 08194.00000000 .00000059 00000-0 00000-0 0 19408 2 23175 0.0235 91.1360 0002708 38.5897 329.5315 1.00273315 18 INTELSAT 2 1 23175C 94040A 08201.00000000 .00000060 00000-0 00000-0 0 20108 2 23175 0.0397 97.2201 0003047 46.3859 322.6072 1.00273219 17 INTELSAT 704 1 23461C 95001A 08194.00000000 .00000060 00000-0 00000-0 0 19406 2 23461 0.0333 210.6644 0005497 255.1670 250.4200 1.00272015 13 INTELSAT 704 [PM] 1 23461C 95001A 08198.27236111 -.00005069 00000-0 00000-0 0 19824 2 23461 0.0000 103.5508 0005540 356.8384 358.1280 1.00271963 18 INTELSAT 704 1 23461C 95001A 08201.00000000 .00000068 00000-0 00000-0 0 20102 2 23461 0.0120 135.5184 0005513 335.4506 252.1916 1.00271876 17 INTELSAT 705 1 23528C 95013A 08194.00000000 -.00000189 00000-0 00000-0 0 19406 2 23528 0.0021 3.9970 0003113 112.5328 123.7186 1.00272972 12 INTELSAT 705 1 23528C 95013A 08201.00000000 -.00000192 00000-0 00000-0 0 20108 2 23528 0.0115 77.3317 0003175 47.5997 122.2269 1.00270881 16 INTELSAT 705 [PM] 1 23528C 95013A 08202.04670139 -.00000192 00000-0 00000-0 0 20200 2 23528 0.0692 273.7604 0003290 214.1409 137.1007 1.00271931 17 INTELSAT 706 1 23571C 95023A 08194.00000000 .00000204 00000-0 00000-0 0 19402 2 23571 0.0070 9.0499 0003201 106.2892 225.1733 1.00274797 13 INTELSAT 706 1 23571C 95023A 08201.00000000 .00000204 00000-0 00000-0 0 20100 2 23571 0.0144 68.5729 0003178 52.6476 226.1866 1.00272177 14 INTELSAT 706 [PM] 1 23571C 95023A 08203.76736111 .00000204 00000-0 00000-0 0 20362 2 23571 0.0957 40.4693 0002958 94.3113 131.6139 1.00268683 11 INTELSAT 3R 1 23764C 96002A 08194.00000000 -.00000178 00000-0 00000-0 0 19405 2 23764 0.0304 218.6547 0002520 254.5644 134.0151 1.00270336 11 INTELSAT 3R 1 23764C 96002A 08201.00000000 -.00000179 00000-0 00000-0 0 20104 2 23764 0.2364 84.0486 0002656 48.4269 121.6328 1.00268484 18 HGS-3 1 23779C 96006A 08194.00000000 .00000238 00000-0 00000-0 0 19401 2 23779 0.0494 232.7814 0003037 221.4042 234.0258 1.00272841 12 HGS-3 1 23779C 96006A 08201.00000000 .00000243 00000-0 00000-0 0 20105 2 23779 0.0540 212.5040 0003132 243.4380 239.1977 1.00269479 13 INTELSAT 707 1 23816C 96015A 08194.00000000 -.00000196 00000-0 00000-0 0 19407 2 23816 0.0064 30.4343 0003272 89.3457 117.4683 1.00273084 15 INTELSAT 707 [PM] 1 23816C 96015A 08200.85416667 -.00000195 00000-0 00000-0 0 20061 2 23816 0.0194 74.7044 0003226 49.9910 66.8084 1.00273422 11 INTELSAT 707 1 23816C 96015A 08201.00000000 -.00000195 00000-0 00000-0 0 20104 2 23816 0.0199 75.0372 0003269 50.0102 119.1012 1.00273553 15 GALAXY 9 1 23877C 96033A 08192.00000000 -.00000167 00000-0 00000-0 0 19208 2 23877 0.0090 148.7544 0000028 245.1353 173.3893 1.00272025 18 GALAXY 9 1 23877C 96033A 08199.00000000 -.00000135 00000-0 00000-0 0 19907 2 23877 0.0246 198.3736 0000020 210.2134 165.5956 1.00271617 16 INTELSAT 709 1 23915C 96035A 08194.00000000 -.00000093 00000-0 00000-0 0 19405 2 23915 0.0111 55.3589 0003234 59.3901 260.6452 1.00272737 14 INTELSAT 709 1 23915C 96035A 08201.00000000 -.00000095 00000-0 00000-0 0 20105 2 23915 0.0225 25.3629 0003420 99.5293 257.4101 1.00271361 16 INTELSAT 709 [PM] 1 23915C 96035A 08203.16901620 -.00000095 00000-0 00000-0 0 20315 2 23915 0.0679 258.0223 0003347 236.0538 311.2108 1.00272024 15 INTELSAT 801 1 24742C 97009A 08194.00000000 .00000033 00000-0 00000-0 0 19409 2 24742 0.0177 322.6260 0003194 144.2015 349.4223 1.00271604 10 INTELSAT 801 1 24742C 97009A 08201.00000000 -.00004325 00000-0 00000-0 0 20106 2 24742 0.0521 236.3906 0003159 241.4589 345.3066 1.00271377 15 INTELSAT 801 [PM] 1 24742C 97009A 08202.50694444 -.00000134 00000-0 00000-0 0 20242 2 24742 0.0778 237.3653 0005269 250.8213 321.4644 1.00269617 12 INTELSAT 801 [PM] 1 24742C 97009A 08205.34186343 .00000021 00000-0 00000-0 0 20526 2 24742 0.0393 246.3358 0002928 224.0777 120.0901 1.00271482 16 GALAXY 25 1 24812C 97026A 08194.00000000 -.00000049 00000-0 00000-0 0 19404 2 24812 0.0318 235.0245 0003263 232.9144 85.3146 1.00270850 12 GALAXY 25 1 24812C 97026A 08201.00000000 -.00000049 00000-0 00000-0 0 20102 2 24812 0.0109 104.1557 0003139 18.5678 77.4250 1.00269447 12 GALAXY 25 [PM] 1 24812C 97026A 08201.57362269 -.00000044 00000-0 00000-0 0 20141 2 24812 0.0098 100.5670 0003275 12.4134 294.2451 1.00272070 14 INTELSAT 802 1 24846C 97031A 08194.00000000 .00000246 00000-0 00000-0 0 19405 2 24846 0.0145 22.4539 0002514 90.0021 210.6805 1.00274101 14 INTELSAT 802 1 24846C 97031A 08201.00000000 .00000246 00000-0 00000-0 0 20103 2 24846 0.0106 32.5619 0002638 87.0586 210.4574 1.00268578 13 INTELSAT 802 [PM] 1 24846C 97031A 08202.82903935 .00000180 00000-0 00000-0 0 20267 2 24846 0.0130 352.1530 0002512 135.3815 142.7867 1.00267397 16 INTELSAT 5 1 24916C 97046A 08194.00000000 .00000236 00000-0 00000-0 0 19408 2 24916 0.0045 49.9016 0002122 67.8958 198.6304 1.00275954 17 INTELSAT 5 1 24916C 97046A 08201.00000000 .00000225 00000-0 00000-0 0 20104 2 24916 0.0009 81.3503 0002201 23.6035 218.3430 1.00269147 19 INTELSAT 805 1 25371C 98037A 08194.00000000 -.00000196 00000-0 00000-0 0 19401 2 25371 0.0252 290.9069 0003497 185.9910 117.8476 1.00274066 11 INTELSAT 805 1 25371C 98037A 08201.00000000 -.00000195 00000-0 00000-0 0 20108 2 25371 0.1013 2.7483 0003657 123.9676 114.9338 1.00269356 16 INTELSAT 805 [PM] 1 25371C 98037A 08203.57847222 -.00000222 00000-0 00000-0 0 20344 2 25371 0.0161 295.1001 0003365 195.5763 321.7765 1.00273108 13 GALAXY 26 1 25626C 99005A 08194.00000000 -.00000073 00000-0 00000-0 0 19404 2 25626 0.0147 58.4786 0002848 48.7269 90.0469 1.00272516 14 GALAXY 26 1 25626C 99005A 08201.00000000 -.00003238 00000-0 00000-0 0 20108 2 25626 0.0474 231.7098 0002824 244.1538 88.2924 1.00271271 16 GALAXY 26 [PM] 1 25626C 99005A 08204.52199074 -.00000116 00000-0 00000-0 0 20447 2 25626 0.0028 74.3266 0002580 55.2444 265.9729 1.00272341 11 INSAT-2E 1 25666C 99016A 08194.00000000 -.00000072 00000-0 00000-0 0 19409 2 25666 0.0359 209.2215 0007275 241.1616 282.8400 1.00271612 12 INSAT-2E 1 25666C 99016A 08201.00000000 -.00000075 00000-0 00000-0 0 20100 2 25666 0.0124 104.7781 0007135 349.6140 285.7349 1.00270549 12 GALAXY 27 1 25922C 99052A 08194.00000000 .00000149 00000-0 00000-0 0 19408 2 25922 0.0168 62.8238 0002456 43.4905 54.9186 1.00270872 19 GALAXY 27 [PM] 1 25922C 99052A 08200.58333333 -.00003418 00000-0 00000-0 0 20042 2 25922 0.0465 231.1944 0002541 246.5721 259.9848 1.00270652 19 GALAXY 27 1 25922C 99052A 08201.00000000 .00000145 00000-0 00000-0 0 20102 2 25922 0.0001 48.4714 0002508 68.7709 50.9204 1.00270196 10 GALAXY 11 1 26038C 99071A 08192.00000000 -.00000083 00000-0 00000-0 0 19202 2 26038 0.0090 148.6837 0000028 231.7761 176.8193 1.00271974 11 GALAXY 11 1 26038C 99071A 08199.00000000 -.00000082 00000-0 00000-0 0 19905 2 26038 0.0246 198.5997 0000020 195.2302 170.3528 1.00271566 10 GALAXY 4R 1 26298C 00020A 08194.00000000 -.00000152 00000-0 00000-0 0 19407 2 26298 1.8351 80.9894 0003118 20.4825 111.9084 1.00272650 17 GALAXY 4R 1 26298C 00020A 08201.00000000 -.00000152 00000-0 00000-0 0 20105 2 26298 1.8501 81.1186 0003021 27.4657 111.7040 1.00271607 15 INTELSAT 12 1 26590C 00068A 08194.00000000 .00000227 00000-0 00000-0 0 19406 2 26590 0.0494 262.8345 0002737 222.9540 209.4780 1.00275094 13 INTELSAT 12 [PM] 1 26590C 00068A 08200.61354167 .00000226 00000-0 00000-0 0 20048 2 26590 0.0721 252.6548 0002524 221.5482 88.4521 1.00270649 11 INTELSAT 12 1 26590C 00068A 08201.00000000 .00000230 00000-0 00000-0 0 20108 2 26590 0.0518 234.6134 0002746 253.9640 213.5748 1.00275353 16 INTELSAT 1R 1 26608C 00072A 08192.00000000 -.00000208 00000-0 00000-0 0 19207 2 26608 0.0091 148.9904 0000028 284.3190 169.9696 1.00272073 15 INTELSAT 1R 1 26608C 00072A 08199.00000000 -.00000206 00000-0 00000-0 0 19909 2 26608 0.0244 197.5833 0000020 252.1824 160.4168 1.00271665 11 INTELSAT 901 1 26824C 01024A 08194.00000000 -.00000049 00000-0 00000-0 0 19402 2 26824 0.0049 356.2452 0003486 114.8880 161.1150 1.00272713 14 INTELSAT 901 1 26824C 01024A 08201.00000000 -.00000051 00000-0 00000-0 0 20103 2 26824 0.0101 70.1054 0003564 49.8344 159.2149 1.00271444 18 INTELSAT 901 [PM] 1 26824C 01024A 08204.95057870 -.00003462 00000-0 00000-0 0 20476 2 26824 0.0547 275.1638 0003329 214.9874 135.1088 1.00271733 15 INTELSAT 902 1 26900C 01039A 08194.00000000 .00000123 00000-0 00000-0 0 19405 2 26900 0.0316 44.2076 0003156 64.5007 243.5421 1.00271890 19 INTELSAT 902 [PM] 1 26900C 01039A 08199.60763889 .00000123 00000-0 00000-0 0 19946 2 26900 0.0149 19.0791 0003283 93.6751 103.7796 1.00270329 15 INTELSAT 902 1 26900C 01039A 08201.00000000 .00000123 00000-0 00000-0 0 20103 2 26900 0.0141 26.7181 0003285 90.2142 242.2209 1.00270835 14 INTELSAT 904 1 27380C 02007A 08194.00000000 .00000139 00000-0 00000-0 0 19401 2 27380 0.0167 36.8027 0003137 70.0288 243.4061 1.00271712 13 INTELSAT 904 1 27380C 02007A 08201.00000000 .00000133 00000-0 00000-0 0 20103 2 27380 0.0066 7.9658 0003240 110.0268 239.1571 1.00272409 10 INTELSAT 904 [PM] 1 27380C 02007A 08204.07858796 .00000232 00000-0 00000-0 0 20409 2 27380 0.0070 21.9315 0002961 101.3003 265.2581 1.00269866 14 INTELSAT 903 [PM] 1 27403C 02016A 08190.82061343 -.00000177 00000-0 00000-0 0 19065 2 27403 0.0089 317.7848 0002986 146.1839 84.0615 1.00272489 18 INTELSAT 903 1 27403C 02016A 08194.00000000 -.00000148 00000-0 00000-0 0 19408 2 27403 0.0011 29.6488 0003148 83.7852 142.3173 1.00272500 15 INTELSAT 903 1 27403C 02016A 08201.00000000 -.00000148 00000-0 00000-0 0 20106 2 27403 0.0165 86.3046 0003195 35.2441 141.1135 1.00270947 11 INTELSAT 905 1 27438C 02027A 08194.00000000 -.00000097 00000-0 00000-0 0 19401 2 27438 0.0073 355.5775 0003335 118.1273 152.0419 1.00272714 17 INTELSAT 905 1 27438C 02027A 08201.00000000 -.00004072 00000-0 00000-0 0 20106 2 27438 0.0552 244.8915 0003459 238.7761 148.9926 1.00270816 11 INTELSAT 905 [PM] 1 27438C 02027A 08204.78825232 -.00000096 00000-0 00000-0 0 20467 2 27438 0.0452 255.7258 0003116 235.2121 69.2149 1.00271659 11 GALAXY 3C 1 27445C 02030A 08192.00000000 -.00000060 00000-0 00000-0 0 19209 2 27445 0.0090 148.6607 0000028 226.1637 178.4047 1.00271951 10 GALAXY 3C 1 27445C 02030A 08199.00000000 -.00000059 00000-0 00000-0 0 19901 2 27445 0.0247 198.6737 0000020 188.9032 172.5557 1.00271543 17 INTELSAT 906 1 27513C 02041A 08194.00000000 .00000124 00000-0 00000-0 0 19401 2 27513 0.0132 341.9967 0002935 128.5616 243.8384 1.00271837 15 INTELSAT 906 [PM] 1 27513C 02041A 08200.07909722 .00000104 00000-0 00000-0 0 20001 2 27513 0.0080 48.3151 0003014 68.4465 272.1135 1.00271202 18 INTELSAT 906 1 27513C 02041A 08201.00000000 .00000066 00000-0 00000-0 0 20104 2 27513 0.0084 54.9323 0002991 64.5122 241.8630 1.00271175 18 INTELSAT 907 1 27683C 03007A 08194.00000000 -.00000112 00000-0 00000-0 0 19400 2 27683 0.0102 47.8868 0003227 68.0060 146.8570 1.00271551 10 INTELSAT 907 1 27683C 03007A 08201.00000000 -.00004300 00000-0 00000-0 0 20101 2 27683 0.0007 357.5890 0003293 125.4460 146.6241 1.00270965 16 INTELSAT 907 [PM] 1 27683C 03007A 08201.76304398 -.00003435 00000-0 00000-0 0 20165 2 27683 0.0399 248.1798 0003173 236.2991 60.6288 1.00271601 13 GALAXY 12 1 27715C 03013B 08194.00000000 .00000115 00000-0 00000-0 0 19405 2 27715 0.0419 309.0153 0002716 163.3763 54.9580 1.00270877 18 GALAXY 12 [PM] 1 27715C 03013B 08197.56202546 .00000115 00000-0 00000-0 0 19745 2 27715 0.0335 325.3107 0002780 148.4428 259.4237 1.00271780 13 GALAXY 12 1 27715C 03013B 08201.00000000 .00000116 00000-0 00000-0 0 20104 2 27715 0.0276 336.2297 0002748 142.8204 55.1922 1.00271283 12 GALAXY 23 1 27854C 03034A 08194.00000000 .00000103 00000-0 00000-0 0 19409 2 27854 0.0115 29.4450 0003101 76.7127 63.0821 1.00271043 13 GALAXY 23 1 27854C 03034A 08201.00000000 .00000099 00000-0 00000-0 0 20101 2 27854 0.0122 342.0555 0003125 132.6750 61.4181 1.00271830 16 GALAXY 23 [PM] 1 27854C 03034A 08202.34513889 -.00003479 00000-0 00000-0 0 20222 2 27854 0.0079 354.8595 0003014 124.3930 182.4750 1.00270359 18 GALAXY 13 1 27954C 03044A 08194.00000000 .00000138 00000-0 00000-0 0 19409 2 27954 0.0325 76.7953 0001871 42.6431 43.7988 1.00272433 15 GALAXY 13 1 27954C 03044A 08201.00000000 .00000140 00000-0 00000-0 0 20100 2 27954 0.0014 81.2728 0001899 36.5318 52.3398 1.00269812 15 INTELSAT 10-02 1 28358C 04022A 08194.00000000 .00000020 00000-0 00000-0 0 19405 2 28358 0.0032 28.0342 0002041 59.7411 270.9507 1.00271325 18 INTELSAT 10-02 [PM] 1 28358C 04022A 08198.43619213 .00000079 00000-0 00000-0 0 19839 2 28358 0.0232 84.8892 0001058 6.7717 359.0062 1.00273386 12 INTELSAT 10-02 1 28358C 04022A 08201.00000000 -.00002609 00000-0 00000-0 0 20109 2 28358 0.0484 230.8159 0001823 210.5851 284.2372 1.00270916 13 GALAXY 28 1 28702C 05022A 08194.00000000 -.00000095 00000-0 00000-0 0 19402 2 28702 0.0096 48.7631 0002874 322.0619 190.4290 1.00270826 11 GALAXY 28 [PM] 1 28702C 05022A 08199.21177083 -.00000094 00000-0 00000-0 0 19911 2 28702 0.0035 38.8241 0002945 321.0082 282.7945 1.00273152 10 GALAXY 28 1 28702C 05022A 08201.00000000 -.00000092 00000-0 00000-0 0 20107 2 28702 0.0062 74.9698 0002765 297.7712 195.4186 1.00270285 17 GALAXY 14 1 28790C 05030A 08194.00000000 .00000127 00000-0 00000-0 0 19403 2 28790 0.0223 47.6048 0002703 58.8264 58.8095 1.00272710 15 GALAXY 14 [PM] 1 28790C 05030A 08200.31175926 .00000121 00000-0 00000-0 0 20029 2 28790 0.0063 16.2909 0002917 98.8483 168.5708 1.00271350 18 GALAXY 14 1 28790C 05030A 08201.00000000 .00000125 00000-0 00000-0 0 20109 2 28790 0.0058 20.8815 0002825 95.1767 56.0981 1.00271061 15 GALAXY 15 1 28884C 05041A 08194.00000000 .00000169 00000-0 00000-0 0 19405 2 28884 0.0097 9.4033 0002665 101.8578 45.9795 1.00270377 13 GALAXY 15 1 28884C 05041A 08201.00000000 .00000169 00000-0 00000-0 0 20103 2 28884 0.0156 63.2302 0002723 54.6216 46.2905 1.00271215 14 GALAXY 15 [PM] 1 28884C 05041A 08203.78810185 .00000169 00000-0 00000-0 0 20361 2 28884 0.1088 11.7369 0002551 114.3220 324.5534 1.00271924 15 GALAXY 16 1 29236C 06023A 08194.00000000 -.00000037 00000-0 00000-0 0 19403 2 29236 0.0213 91.2856 0003169 14.8730 85.0970 1.00272051 11 GALAXY 16 [PM] 1 29236C 06023A 08200.75000000 -.00000056 00000-0 00000-0 0 20068 2 29236 0.0257 173.2723 0003115 304.5681 350.0551 1.00272141 18 GALAXY 16 1 29236C 06023A 08201.00000000 -.00002964 00000-0 00000-0 0 20102 2 29236 0.0280 179.3854 0003097 298.1108 80.6474 1.00272004 15 GALAXY 17 1 31307C 07016B 08194.00000000 -.00000085 00000-0 00000-0 0 19401 2 31307 0.0302 295.5653 0003387 172.2278 90.4708 1.00737999 10 GALAXY 17 1 31307C 07016B 08201.00000000 -.00000097 00000-0 00000-0 0 20102 2 31307 0.0521 237.1846 0003567 206.3077 122.6721 1.00267170 17 GALAXY 17 [PM] 1 31307C 07016B 08201.53854167 -.00000115 00000-0 00000-0 0 20146 2 31307 0.0510 242.0326 0003266 207.2243 311.3054 1.00271860 11 INTELSAT 11 1 32253C 07044B 08194.00000000 -.00000179 00000-0 00000-0 0 19407 2 32253 0.0257 94.0533 0002700 10.6114 142.4857 1.00273137 13 INTELSAT 11 [PM] 1 32253C 07044B 08198.89901620 -.00000076 00000-0 00000-0 0 19873 2 32253 0.0461 210.7458 0002822 259.8558 105.0288 1.00272337 11 INTELSAT 11 1 32253C 07044B 08201.00000000 -.00000184 00000-0 00000-0 0 20101 2 32253 0.0140 122.5965 0002821 352.9343 138.5299 1.00271065 14 HORIZONS 2 1 32388C 07063B 08194.00000000 -.00000204 00000-0 00000-0 0 19406 2 32388 0.0015 18.5049 0002695 91.6013 106.0966 1.00272385 18 HORIZONS 2 [PM] 1 32388C 07063B 08198.87833333 -.00000160 00000-0 00000-0 0 19870 2 32388 0.0107 68.0668 0002783 43.9631 65.1934 1.00272197 12 HORIZONS 2 1 32388C 07063B 08201.00000000 -.00000163 00000-0 00000-0 0 20108 2 32388 0.0145 79.7924 0002788 36.5412 106.7860 1.00270979 14 GALAXY 18 1 32951C 08024A 08194.00000000 .00000111 00000-0 00000-0 0 19406 2 32951 0.0157 328.8853 0003126 139.5830 58.7755 1.00271432 11 GALAXY 18 1 32951C 08024A 08201.00000000 .00000115 00000-0 00000-0 0 20108 2 32951 0.0438 148.4478 0003180 329.1807 56.5214 1.00271079 16 GALAXY 18 [PM] 1 32951C 08024A 08202.86527778 .00000115 00000-0 00000-0 0 20266 2 32951 0.1478 47.8201 0003077 75.3789 4.2928 1.00271233 15